DW4776 Weather Reports


time (UTC)temp
C
wind
direction
speed
KPH
gust
KPH
rain 1hr
cm
rain 24hr
cm
rain mn
cm
humidity
%
barometer
mb
20260906070054 13 1 25.7 38.6 0.00 0.18 0.00 83 1020.3
20260906064546 13 15 29.0 40.2 0.00 0.18 0.00 82 1020.6
20260906063046 13 2 27.4 41.8 0.00 0.18 0.00 82 1020.5
20260906061600 13 32 29.0 40.2 0.00 0.18 0.00 82 1020.7
20260906060044 13 347 25.7 40.2 0.03 0.18 0.00 83 1020.7
20260906054546 13 11 30.6 43.5 0.03 0.18 0.18 83 1020.6
20260906053050 13 356 24.1 35.4 0.03 0.18 0.18 83 1020.6
20260906051545 13 3 29.0 41.8 0.03 0.18 0.18 81 1020.3
20260906050104 13 358 27.4 37.0 0.00 0.15 0.15 79 1020.3
20260906044545 13 351 32.2 43.5 0.00 0.15 0.15 79 1020.5
20260906043058 13 357 30.6 49.9 0.05 0.15 0.15 80 1020.0
20260906041544 13 345 30.6 46.7 0.05 0.15 0.15 82 1019.9
20260906040104 13 352 33.8 48.3 0.05 0.15 0.15 81 1019.8
20260906034545 14 3 29.0 40.2 0.05 0.15 0.15 78 1020.4
20260906033045 15 347 22.5 38.6 0.00 0.10 0.10 71 1021.4
20260906031542 15 353 25.7 51.5 0.00 0.10 0.10 71 1020.0
20260906030048 15 356 30.6 45.1 0.00 0.10 0.10 70 1019.3
20260906024547 15 354 32.2 46.7 0.00 0.10 0.10 69 1018.8
20260906023101 15 340 25.7 48.3 0.00 0.10 0.10 68 1018.8
20260906021544 15 14 22.5 38.6 0.00 0.10 0.10 67 1018.7
20260906020048 16 340 24.1 40.2 0.00 0.10 0.10 66 1018.9
20260906014556 16 6 20.9 32.2 0.00 0.10 0.10 63 1018.9
20260906013044 17 19 20.9 32.2 0.00 0.10 0.10 62 1018.6
20260906011553 17 14 22.5 30.6 0.00 0.10 0.10 60 1018.8
20260906010044 18 6 20.9 33.8 0.00 0.10 0.10 58 1018.7
20260906004542 18 29 24.1 35.4 0.00 0.10 0.10 55 1019.0
20260906003047 19 342 22.5 33.8 0.00 0.10 0.10 55 1019.1
20260906001544 18 27 24.1 32.2 0.00 0.10 0.10 56 1019.0
20260906000044 19 358 20.9 30.6 0.00 0.10 0.10 56 1019.4
20260905234552 19 10 19.3 29.0 0.00 0.10 0.10 54 1019.4
20260905233044 19 25 17.7 30.6 0.00 0.10 0.10 54 1019.3
20260905231547 20 45 19.3 30.6 0.00 0.10 0.10 52 1019.1
20260905230045 20 35 11.3 24.1 0.00 0.10 0.10 50 1019.1
20260905224559 21 2 14.5 22.5 0.00 0.10 0.10 50 1019.1
20260905223047 21 23 14.5 24.1 0.00 0.10 0.10 48 1019.2
20260905221544 21 27 12.9 27.4 0.00 0.10 0.10 50 1019.3
20260905220044 21 40 14.5 25.7 0.00 0.10 0.10 50 1019.4
20260905214547 21 29 14.5 22.5 0.00 0.10 0.10 49 1019.4
20260905213044 20 345 12.9 24.1 0.00 0.10 0.10 50 1019.4
20260905211543 21 15 14.5 27.4 0.00 0.10 0.10 48 1019.2
20260905210046 22 153 3.2 24.1 0.00 0.10 0.10 39 1019.3
20260905204546 21 291 3.2 12.9 0.00 0.10 0.10 38 1019.5
20260905203047 21 257 9.7 16.1 0.00 0.10 0.10 38 1019.6
20260905201546 20 318 3.2 16.1 0.00 0.10 0.10 40 1019.7
20260905200052 20 337 8.0 19.3 0.00 0.10 0.10 40 1019.7
20260905194541 20 262 11.3 22.5 0.00 0.10 0.10 42 1019.9
20260905193045 19 349 8.0 22.5 0.00 0.10 0.10 43 1020.0
20260905191546 19 259 6.4 17.7 0.00 0.10 0.10 43 1020.1
20260905190049 19 308 16.1 24.1 0.00 0.10 0.10 43 1020.4
20260905184558 19 285 9.7 19.3 0.00 0.10 0.10 45 1020.4
20260905183050 18 302 8.0 16.1 0.00 0.10 0.10 50 1020.4
20260905181545 17 239 4.8 14.5 0.00 0.10 0.10 54 1020.4
20260905180043 17 257 8.0 12.9 0.00 0.10 0.10 54 1020.7
20260905174547 17 257 6.4 12.9 0.00 0.10 0.10 59 1020.5
20260905173045 16 281 4.8 11.3 0.00 0.10 0.10 61 1020.4
20260905171544 16 252 1.6 11.3 0.00 0.10 0.10 66 1020.4
20260905170050 16 279 4.8 12.9 0.00 0.10 0.10 69 1020.4
20260905164545 16 217 3.2 9.7 0.00 0.10 0.10 72 1020.4
20260905163045 15 224 4.8 11.3 0.00 0.10 0.10 76 1020.6
20260905161544 15 214 3.2 8.0 0.00 0.10 0.10 76 1020.5
20260905160040 14 0 0.0 3.2 0.00 0.10 0.10 79 1020.3
20260905154549 14 40 3.2 12.9 0.03 0.10 0.10 80 1020.3
20260905153055 13 62 4.8 12.9 0.03 0.10 0.10 86 1020.1
20260905151547 12 0 0.0 3.2 0.03 0.10 0.10 89 1020.0
20260905150046 12 0 0.0 1.6 0.03 0.10 0.10 89 1019.9
20260905144547 12 329 1.6 6.4 0.03 0.08 0.08 89 1019.9
20260905143046 11 331 4.8 12.9 0.08 0.08 0.08 89 1019.6
20260905141544 11 318 9.7 12.9 0.08 0.08 0.08 88 1019.7
20260905140042 11 291 3.2 14.5 0.08 0.08 0.08 87 1020.2
20260905134542 11 274 17.7 29.0 0.03 0.03 0.03 84 1020.7
20260905133045 11 271 12.9 19.3 0.00 0.00 0.00 83 1019.9
20260905131559 11 233 14.5 22.5 0.00 0.00 0.00 79 1019.7
20260905130049 11 0 0.0 11.3 0.00 0.00 0.00 77 1018.7
20260905124544 11 175 6.4 16.1 0.00 0.00 0.00 78 1019.4
20260905123046 11 152 6.4 11.3 0.00 0.00 0.00 76 1019.1
20260905121544 11 160 6.4 11.3 0.00 0.00 0.00 72 1018.9
20260905120043 11 198 4.8 11.3 0.00 0.00 0.00 73 1019.0
20260905114543 10 164 4.8 9.7 0.00 0.00 0.00 73 1018.9
20260905113046 10 164 4.8 11.3 0.00 0.00 0.00 71 1018.5
20260905111605 10 194 8.0 12.9 0.00 0.00 0.00 70 1018.3
20260905110046 10 274 8.0 11.3 0.00 0.00 0.00 69 1017.7
20260905104542 11 285 6.4 9.7 0.00 0.00 0.00 68 1018.0
20260905103044 10 214 1.6 6.4 0.00 0.00 0.00 69 1017.7
20260905101546 10 214 4.8 8.0 0.00 0.00 0.00 68 1018.0
20260905100047 11 0 0.0 3.2 0.00 0.00 0.00 68 1017.7
20260905094544 11 312 3.2 11.3 0.00 0.00 0.00 65 1017.9
20260905093042 11 243 4.8 8.0 0.00 0.00 0.00 64 1018.0
20260905091542 11 103 1.6 3.2 0.00 0.00 0.00 65 1017.5
20260905090044 12 103 1.6 6.4 0.00 0.00 0.00 63 1017.0
20260905084541 12 103 0.0 9.7 0.00 0.00 0.00 62 1016.8
20260905083045 12 63 0.0 9.7 0.00 0.00 0.00 61 1016.3
20260905081552 13 23 4.8 12.9 0.00 0.00 0.00 57 1016.6
20260905080046 15 0 1.6 11.3 0.00 0.00 0.00 55 1017.5
20260905074554 14 114 4.8 12.9 0.00 0.00 0.00 57 1017.7
20260905073058 13 134 4.8 14.5 0.00 0.00 0.00 60 1017.6
20260905071544 12 130 3.2 6.4 0.00 0.00 0.00 59 1017.5